THOR ABLESTAR DEB, 6747

Orbit data source: Space-Track

THOR ABLESTAR DEB, 6747 is space debris in LEO originally from a launch on Thu, 29 Jun 1961 UTC launched from the Air Force Eastern Test Range (AFETR). Debris objects in space refer to the collection of defunct objects orbiting the Earth. Examples of debris include non-operational satellites, rocket bodies, and fragments generated from explosions, collisions, or faulty payload assembly.

Loading next visibility...
Identifier
6747, 1961-015KM
Orbit
LEO
Country
Flag of USUS
Related business
Manufacturer
Unknown
Mission
Spacecraft
Bus & Motor
Unknown
Mass
Unknown
Launch date (UTC)
1961-06-29 (64 years ago)
Launch vehicle
Unknown
Launch site
Air Force Eastern Test Range (AFETR)
Object type
Payload
Rocket body
Debris
Shape & HBR
Unknown shape, 0.1 m
Radar Cross Section
Small (<0.1 m²)

Expand to show TLE details & history
Last TLE update: 2 days ago

TLE from 2 days ago
0 THOR ABLESTAR DEB
1 06747U 61015KM  25285.33476474  .00000397  00000-0  32714-3 0  9996
2 06747  66.6015  40.9251 0137596   9.2904 351.0672 13.94945827257006
Epoch: 2025-10-12T08:02Z
TLE epoch observation values (Epoch: 2025-10-12T08:02:03.673Z)
Latitude
0.00005°
Longitude
-100.74356°
Altitude
814.354 km
Speed
7.497 km/s
True Right ascension
02h 43m 42s
True Declination
0° 00' 00"
Sunlit
Object was in full shadow at epoch
Visualization orbit readout
Latitude
Unknown
Longitude
Unknown
Altitude
Unknown
Speed
Unknown
Apparent Right ascension
Unknown
Apparent Declination
Unknown
Sunlit
N/A
Visualization observer readout
Local Sidereal Time
06:58:35
Azimuth
Unknown
Elevation
Unknown
Doppler factor
Unknown
Orbital elements
Apogee altitude
1,010.041 km
Perigee altitude
809.484 km
Semi-major axis
7,287.899 km
Eccentricity
0.01376
Inclination
66.6015°
RAAN
40.9251°
Arg. of periapsis
9.2904°
True anomaly
350.81814°
Mean anomaly
351.0672°
Eccentric anomaly
350.9431°
Mean motion
3.48851 °/min
Orbital period
103.2 mins
BSTAR
0.00032714
Loading maneuver chart data...
Computing Atmospheric mass density...

Documentation

Showing up to 5 results
|